Hutchinson, MN

11:36 PM CDT on August 31, 2016 (GMT -0500)
Hutchinson Municipal-Butler

Weather History for KHCD - February, 2014

Change the Weather History Date:

Friday, February 21, 2014

  Actual Average Record
Temperature  
Mean Temperature 10 °F -  
Max Temperature 16 °F 33 °F 53 °F (1981)
Min Temperature 3 °F 14 °F -23 °F (2001)
Degree Days  
Heating Degree Days 56    
Moisture  
Dew Point 6 °F    
Average Humidity 80    
Maximum Humidity 88    
Minimum Humidity 74    
Precipitation  
Precipitation 0.00 in - - ()
Sea Level Pressure  
Sea Level Pressure 29.59 in    
Wind  
Wind Speed 23 mph (WNW)    
Max Wind Speed 29 mph    
Max Gust Speed 36 mph    
Visibility 5 miles    
Events Snow    
Averages and records for this station are not official NWS values.
T = Trace of Precipitation, MM = Missing Value Source: NWS Daily Summary

Daily Weather History Graph

Daily Weather History Graph

Search for Another Location

Airport or City:

Trip Planner

Search our weather history database for the weather conditions in past years. The results will help you decide how hot, cold, wet, or windy it might be!

Date:

Astronomy

Feb. 21, 2014 Rise Set
Actual Time 7:08 AM CST 5:54 PM CST
Civil Twilight 6:38 AM CST 6:24 PM CST
Nautical Twilight 6:04 AM CST 6:58 PM CST
Astronomical Twilight 5:31 AM CST 7:31 PM CST
Moon 12:04 AM CST (2/21) 10:16 AM CST (2/21)
Length of Visible Light 11h 45m
Length of Day
10h 45m
Waning Gibbous, 60% of the Moon is Illuminated
Feb 21
Waning Gibbous
Feb 22
Last Quarter
Mar 1
New
Mar 8
First Quarter
Mar 16
Full

Hourly Weather History & Observations

Time (CST) Temp. Windchill Dew Point Humidity Pressure Visibility Wind Dir Wind Speed Gust Speed Precip Events Conditions
12:13 AM 13.1 °F -6.7 °F 10.2 °F 88% 29.41 in 1.2 mi WNW 25.3 mph 33.4 mph N/A Snow Light Snow
12:33 AM 13.1 °F -7.0 °F 10.2 °F 88% 29.41 in 1.0 mi WNW 26.5 mph 35.7 mph N/A Snow Light Snow
12:53 AM 12.7 °F -7.5 °F 9.1 °F 86% 29.40 in 2.0 mi WNW 26.5 mph 32.2 mph N/A Snow Light Snow
1:13 AM 11.8 °F -9.1 °F 8.1 °F 85% 29.40 in 2.0 mi WNW 27.6 mph 34.5 mph N/A Snow Light Snow
1:33 AM 11.3 °F -8.3 °F 7.7 °F 85% 29.41 in 2.0 mi WNW 23.0 mph 33.4 mph N/A Snow Light Snow
1:53 AM 10.6 °F -10.0 °F 6.8 °F 85% 29.42 in 2.0 mi WNW 25.3 mph 32.2 mph N/A Snow Light Snow
2:13 AM 10.4 °F -9.9 °F 6.6 °F 85% 29.43 in 1.8 mi WNW 24.2 mph 32.2 mph N/A Snow Light Snow
2:33 AM 9.7 °F -11.6 °F 5.9 °F 85% 29.43 in 2.0 mi WNW 26.5 mph 34.5 mph N/A   Overcast
2:53 AM 9.3 °F -11.3 °F 5.4 °F 84% 29.44 in 2.0 mi WNW 24.2 mph 32.2 mph N/A Snow Light Snow
3:13 AM 8.8 °F -12.1 °F 4.8 °F 84% 29.44 in 2.0 mi WNW 24.2 mph 33.4 mph N/A Snow Light Snow
3:33 AM 8.4 °F -12.9 °F 4.1 °F 83% 29.45 in 2.5 mi WNW 25.3 mph 34.5 mph N/A   Mostly Cloudy
3:53 AM 7.7 °F -13.1 °F 3.7 °F 84% 29.45 in 3.0 mi WNW 23.0 mph 31.1 mph N/A   Mostly Cloudy
4:13 AM 7.7 °F -12.2 °F 3.2 °F 82% 29.46 in 4.0 mi WNW 20.7 mph 31.1 mph N/A   Haze
4:33 AM 7.3 °F -12.6 °F 3.0 °F 82% 29.47 in 4.0 mi WNW 20.7 mph 29.9 mph N/A   Clear
4:53 AM 6.8 °F -15.5 °F 2.3 °F 82% 29.47 in 2.5 mi WNW 26.5 mph 33.4 mph N/A   Haze
5:13 AM 6.6 °F -14.5 °F 2.3 °F 82% 29.47 in 4.0 mi WNW 23.0 mph 34.5 mph N/A   Haze
5:33 AM 6.3 °F -15.8 °F 1.8 °F 82% 29.48 in 4.0 mi WNW 25.3 mph 31.1 mph N/A   Clear
5:53 AM 5.7 °F -15.7 °F 1.4 °F 82% 29.49 in 5.0 mi West 23.0 mph 26.5 mph N/A   Haze
6:13 AM 5.0 °F -16.7 °F 0.5 °F 82% 29.50 in 4.0 mi WNW 23.0 mph 29.9 mph N/A   Haze
6:33 AM 4.5 °F -18.2 °F 0.1 °F 82% 29.50 in 3.0 mi West 25.3 mph 29.9 mph N/A   Clear
6:53 AM 4.1 °F -18.3 °F 0.1 °F 84% 29.50 in 2.0 mi West 24.2 mph 34.5 mph N/A   Mist
7:13 AM 4.1 °F -19.1 °F -0.0 °F 83% 29.51 in 1.5 mi West 26.5 mph 34.5 mph N/A Snow Light Snow
7:33 AM 4.1 °F -18.3 °F -0.2 °F 82% 29.51 in 2.5 mi West 24.2 mph 31.1 mph N/A   Mist
7:53 AM 3.9 °F -18.1 °F -0.6 °F 82% 29.52 in 3.0 mi West 23.0 mph 29.9 mph N/A   Haze
8:13 AM 3.9 °F -19.4 °F -0.6 °F 82% 29.53 in 2.5 mi West 26.5 mph 33.4 mph N/A   Haze
8:33 AM 4.5 °F -17.8 °F -0.6 °F 80% 29.54 in 2.5 mi West 24.2 mph 32.2 mph N/A   Haze
8:53 AM 4.6 °F -18.0 °F -0.4 °F 80% 29.53 in 2.0 mi West 25.3 mph 33.4 mph N/A   Haze
9:13 AM 4.8 °F -16.0 °F -0.4 °F 79% 29.54 in 2.0 mi West 20.7 mph 31.1 mph N/A   Haze
9:33 AM 5.4 °F -17.8 °F 0.1 °F 79% 29.55 in 2.5 mi West 27.6 mph 32.2 mph N/A   Haze
9:53 AM 5.7 °F -16.1 °F 0.5 °F 79% 29.55 in 3.0 mi WNW 24.2 mph 32.2 mph N/A   Haze
10:13 AM 6.4 °F -13.8 °F 0.9 °F 78% 29.56 in 3.0 mi WNW 20.7 mph 27.6 mph N/A   Haze
10:33 AM 6.8 °F -15.5 °F 1.4 °F 79% 29.57 in 2.5 mi West 26.5 mph 35.7 mph N/A   Haze
10:53 AM 7.7 °F -13.1 °F 2.1 °F 78% 29.57 in 4.0 mi West 23.0 mph 33.4 mph N/A   Haze
11:13 AM 8.4 °F -12.9 °F 2.7 °F 77% 29.58 in 3.0 mi West 25.3 mph 31.1 mph N/A   Haze
11:33 AM 9.5 °F -12.2 °F 3.6 °F 77% 29.58 in 3.0 mi West 27.6 mph 33.4 mph N/A   Haze
11:53 AM 10.4 °F -10.7 °F 4.5 °F 77% 29.58 in 5.0 mi West 26.5 mph 32.2 mph N/A   Haze
12:13 PM 11.1 °F -8.9 °F 4.8 °F 76% 29.58 in 4.0 mi West 24.2 mph 34.5 mph N/A   Haze
12:33 PM 11.8 °F -9.4 °F 5.9 °F 77% 29.58 in 7.0 mi West 28.8 mph 35.7 mph N/A   Clear
12:53 PM 12.7 °F -6.8 °F 6.3 °F 75% 29.59 in 10.0 mi West 24.2 mph 31.1 mph N/A   Clear
1:13 PM 13.6 °F -5.6 °F 7.3 °F 76% 29.60 in 4.0 mi West 24.2 mph 32.2 mph N/A   Haze
1:33 PM 14.0 °F -5.8 °F 7.7 °F 76% 29.60 in 4.0 mi West 26.5 mph 33.4 mph N/A   Haze
1:53 PM 14.7 °F -4.1 °F 7.9 °F 74% 29.61 in 10.0 mi West 24.2 mph 31.1 mph N/A   Clear
2:13 PM 15.4 °F -2.8 °F 9.1 °F 76% 29.61 in 7.0 mi West 23.0 mph 29.9 mph N/A   Clear
2:33 PM 16.2 °F -1.8 °F 9.5 °F 75% 29.62 in 7.0 mi West 23.0 mph 27.6 mph N/A   Clear
2:53 PM 16.5 °F -0.6 °F 9.7 °F 74% 29.63 in 2.0 mi West 20.7 mph 33.4 mph N/A   Haze
3:13 PM 16.7 °F -2.2 °F 10.0 °F 75% 29.64 in 3.0 mi West 26.5 mph 32.2 mph N/A   Haze
3:33 PM 16.7 °F -0.3 °F 10.8 °F 77% 29.65 in 0.8 mi West 20.7 mph 26.5 mph N/A   Haze
3:53 PM 16.7 °F -1.8 °F 10.8 °F 77% 29.66 in 0.8 mi West 25.3 mph 29.9 mph N/A   Haze
4:13 PM 16.9 °F -0.5 °F 10.8 °F 77% 29.67 in 2.0 mi West 21.9 mph 28.8 mph N/A   Haze
4:33 PM 16.7 °F 0.5 °F 11.1 °F 79% 29.68 in 10.0 mi West 18.4 mph 25.3 mph N/A   Clear
4:53 PM 16.7 °F 0.5 °F 10.8 °F 77% 29.68 in 10.0 mi West 18.4 mph 25.3 mph N/A   Clear
5:13 PM 16.7 °F 0.5 °F 10.8 °F 77% 29.69 in 10.0 mi West 18.4 mph - N/A   Clear
5:33 PM 16.5 °F -0.1 °F 10.4 °F 77% 29.69 in 10.0 mi West 19.6 mph 25.3 mph N/A   Clear
5:53 PM 16.2 °F -1.0 °F 10.8 °F 79% 29.70 in 10.0 mi West 20.7 mph - N/A   Clear
6:13 PM 15.6 °F -0.4 °F 10.4 °F 80% 29.71 in 10.0 mi West 17.3 mph - N/A   Clear
6:33 PM 15.3 °F -0.4 °F 10.0 °F 80% 29.72 in 10.0 mi West 16.1 mph - N/A   Clear
6:53 PM 14.9 °F -0.8 °F 10.0 °F 81% 29.73 in 10.0 mi West 16.1 mph - N/A   Clear
7:13 PM 15.3 °F -0.9 °F 10.4 °F 81% 29.74 in 10.0 mi West 17.3 mph - N/A   Clear
7:33 PM 14.9 °F -1.8 °F 9.9 °F 80% 29.74 in 10.0 mi West 18.4 mph - N/A   Clear
7:53 PM 13.6 °F -1.3 °F 8.6 °F 80% 29.75 in 10.0 mi West 13.8 mph - N/A   Clear
8:13 PM 13.3 °F -1.8 °F 8.2 °F 80% 29.75 in 10.0 mi West 13.8 mph - N/A   Clear
8:33 PM 12.9 °F -2.8 °F 8.2 °F 82% 29.76 in 10.0 mi West 15.0 mph - N/A   Clear
8:53 PM 11.5 °F -1.9 °F 6.8 °F 81% 29.77 in 10.0 mi West 10.4 mph - N/A   Clear
9:13 PM 11.7 °F -3.8 °F 6.8 °F 81% 29.77 in 10.0 mi West 13.8 mph - N/A   Clear
9:33 PM 12.2 °F -3.7 °F 6.8 °F 79% 29.77 in 10.0 mi West 15.0 mph - N/A   Clear
9:53 PM 12.9 °F -1.6 °F 6.8 °F 77% 29.77 in 10.0 mi WNW 12.7 mph - N/A   Clear
10:13 PM 12.2 °F -1.8 °F 6.4 °F 78% 29.77 in 10.0 mi West 11.5 mph - N/A   Clear
10:33 PM 11.5 °F -4.1 °F 6.3 °F 80% 29.78 in 10.0 mi West 13.8 mph 20.7 mph N/A   Clear
10:53 PM 9.9 °F -5.5 °F 5.2 °F 81% 29.78 in 10.0 mi West 12.7 mph - N/A   Clear
11:13 PM 10.6 °F -5.8 °F 5.7 °F 81% 29.78 in 10.0 mi West 15.0 mph - N/A   Clear
11:33 PM 11.1 °F -6.2 °F 5.9 °F 80% 29.78 in 10.0 mi West 17.3 mph 21.9 mph N/A   Clear
11:53 PM 11.1 °F -3.9 °F 5.2 °F 77% 29.80 in 10.0 mi West 12.7 mph 25.3 mph N/A   Clear